Location: Aulagny
(45.1643°N, 4.3096°E)
Time: 01:59:31
(UTC+00:00)

Cosmos 1725 Rocket - Pass Details

Date: 21 October 2019
Orbit: 963 x 990 km, 82.9° (Epoch: 18 November)

Event Time Altitude Azimuth Distance (km) Brightness Sun altitude
Rises 19:27:07 0° 351° (N) 3,692 7.3 -28.6°
Reaches altitude 10° 19:29:38 10° 351° (N) 2,744 6.6 -29.0°
Maximum altitude 19:35:57 86° 265° (W) 994 3.9 -30.1°
Enters shadow 19:36:08 84° 212° (SSW) 997 3.9 -30.1°
